Location: Zagreb
(45.8000°N, 16.0000°E)
Time: 11:40:52
(UTC+01:00)

ISS - Visible Passes

Search period start: 21 December 2014 00:00
Search period end: 31 December 2014 00:00
Orbit: 404 x 414 km, 51.6° (Epoch: 21 December)

Date Brightness Start Highest point End Pass type
(mag) Time Alt. Az. Time Alt. Az. Time Alt. Az.
21 Dec -2.6 17:43:11 10° NW 17:46:17 37° NNE 17:46:56 33° NE visible
22 Dec -2.3 16:52:21 10° NW 16:55:21 31° N 16:58:20 10° ENE visible
22 Dec -2.2 18:28:55 10° WNW 18:31:12 41° WNW 18:31:12 41° WNW visible
23 Dec -3.2 17:38:05 10° WNW 17:41:21 58° NNE 17:42:46 29° E visible
23 Dec 0.0 19:14:59 10° W 19:15:33 13° W 19:15:33 13° W visible
24 Dec -2.8 16:47:13 10° NW 16:50:23 42° NNE 16:53:32 10° E visible
24 Dec -2.3 18:23:51 10° WNW 18:26:59 42° SW 18:27:16 41° SSW visible
25 Dec -3.1 17:32:50 10° WNW 17:36:07 72° SSW 17:39:12 11° SE visible
25 Dec 0.0 19:11:07 10° WSW 19:12:01 11° SW 19:12:01 11° SW visible
26 Dec -0.6 18:18:59 10° W 18:21:24 19° SW 18:23:48 10° S visible
27 Dec -1.4 17:27:34 10° WNW 17:30:33 32° SW 17:33:30 10° SSE visible
29 Dec -0.1 17:22:42 10° W 17:24:38 15° SW 17:26:34 10° S visible
